Wind_Speed
54 54 55 55 55 56 57 57 58 58 57 57 58 59 59 60 60 60 60 60 60 60 59 59 59 58 58 57 57 56 55 55 55 54 53 52 51 51
55 55 55 55 56 56 57 57 58 58 59 58 59 60 60 60 60 61 61 61 62 62 61 61 61 61 60 60 59 59 58 58 57 57 56 55 54 54
56 56 56 56 57 57 58 59 59 60 60 59 59 61 61 62 62 63 62 62 63 63 63 63 63 63 62 62 62 61 61 60 60 60 59 59 58 57
55 56 57 57 57 58 58 59 60 60 61 61 61 62 62 63 63 64 63 62 63 63 63 63 63 63 63 62 62 62 62 61 62 62 62 62 61 60
56 56 57 58 59 59 59 60 60 61 62 62 61 62 64 64 64 64 63 63 62 62 62 63 63 62 62 62 62 62 62 61 61 62 62 62 62 62
55 57 58 58 59 59 59 59 60 60 61 62 62 62 62 63 64 64 63 63 62 62 62 63 63 63 63 62 62 62 61 61 61 61 62 62 61 62
56 57 58 58 59 59 59 59 60 61 62 62 62 63 63 63 64 63 63 63 62 62 62 63 63 63 63 63 63 62 62 62 62 61 61 62 61 61
55 56 57 58 59 59 60 60 61 61 62 62 62 62 63 62 63 63 64 64 63 63 63 63 63 63 63 63 63 63 63 63 63 62 61 61 62 62
56 57 57 58 58 58 59 59 61 61 63 63 62 61 61 61 62 62 63 63 62 63 64 63 62 62 62 63 62 62 62 62 62 62 62 62 62 62
56 57 57 57 57 58 59 60 61 61 62 63 63 61 60 60 60 61 61 62 61 62 62 62 62 62 61 61 61 61 61 62 62 61 61 61 61 61
56 56 56 56 57 58 59 60 60 60 61 62 62 61 60 60 61 62 62 62 61 61 62 62 61 62 61 60 60 60 60 60 61 61 61 61 61 61
53 54 54 56 57 58 58 58 58 59 59 60 61 61 60 60 60 61 61 62 62 62 62 62 61 61 61 60 60 60 60 60 60 60 61 61 61 61
52 52 53 53 53 54 55 55 55 55 57 58 59 58 58 59 58 59 59 60 60 60 61 61 60 60 60 59 59 59 59 60 60 60 60 60 59 60
50 51 51 51 51 51 52 52 52 53 54 55 55 55 56 56 56 56 58 58 58 58 58 59 59 59 59 59 59 59 59 59 59 59 59 59 59 59
49 50 50 50 50 50 50 51 51 51 52 52 53 53 54 53 54 55 55 56 57 57 57 57 57 57 57 57 57 58 58 57 58 59 59 59 59 58
48 49 49 50 50 50 50 50 50 51 51 52 52 53 53 52 52 53 53 54 54 54 54 55 55 55 55 55 55 55 56 56 57 58 58 58 57 57
46 47 48 49 50 50 50 50 50 51 51 51 51 51 52 52 52 52 52 51 51 51 52 53 54 54 54 54 53 53 54 55 55 56 56 55 54 54
45 45 45 47 48 49 49 49 49 49 49 50 50 49 49 49 49 50 50 49 49 50 50 51 52 52 52 52 52 52 52 52 52 52 52 52 51 51
43 43 43 44 45 46 47 47 47 48 48 48 48 48 48 47 48 48 48 47 47 48 48 49 49 50 50 50 50 50 50 50 50 49 49 49 48 49
40 41 41 41 42 42 43 44 44 45 45 46 46 45 45 45 46 46 47 47 46 46 47 47 47 47 47 47 47 47 47 48 47 46 46 46 47 47
39 39 39 39 39 39 39 40 40 41 42 42 42 42 43 44 44 45 46 46 45 45 45 44 44 44 44 45 45 45 45 45 44 44 44 45 45 45
37 37 38 38 38 37 37 38 38 38 38 38 39 39 40 41 42 43 43 43 42 42 41 41 41 41 41 41 41 41 42 42 43 43 43 43 43 43
36 36 36 36 36 36 35 35 36 36 36 36 36 37 38 38 38 38 39 39 38 37 37 37 38 38 38 38 39 40 40 40 41 41 42 42 41 41
Wind_Direction
258 258 258 258 259 259 257 257 256 255 254 254 256 257 258 258 258 258 257 258 258 258 258 258 258 258 258 258 258 258 258 258 259 259 259 258 258 258
258 258 259 259 259 260 259 258 257 256 255 254 256 257 258 258 258 258 258 258 258 259 259 259 258 258 258 259 259 258 258 258 258 258 258 258 257 258
259 259 259 259 260 260 260 259 258 257 257 256 256 257 257 258 258 258 258 258 259 259 259 259 259 259 259 259 259 259 258 258 258 258 258 258 258 258
260 260 259 259 261 261 260 260 259 258 257 257 257 257 257 258 258 259 259 259 259 259 259 258 258 258 258 258 259 259 259 259 258 258 258 258 258 257
261 260 260 260 261 261 260 261 261 260 258 258 257 257 258 258 258 258 258 258 259 258 258 257 257 257 258 258 259 259 259 259 259 259 258 259 259 258
262 261 261 261 261 261 261 261 261 260 259 259 258 258 258 258 258 258 258 258 258 258 257 257 257 257 257 258 259 259 259 259 259 259 258 258 258 258
262 262 262 261 261 261 261 261 261 260 260 260 259 258 258 258 258 258 257 257 258 258 257 257 257 257 257 258 259 259 259 259 259 259 259 258 258 258
262 263 263 263 261 261 261 261 262 261 261 261 260 260 260 259 259 258 257 257 257 257 258 257 257 258 259 259 259 259 259 259 259 259 259 259 259 259
263 263 263 263 262 262 261 262 262 262 261 260 259 260 260 259 259 259 258 258 257 257 257 257 257 257 258 258 258 258 258 258 258 259 260 260 259 259
263 263 263 263 262 262 262 262 262 262 262 260 260 260 259 259 258 258 258 258 258 257 257 258 257 257 257 257 257 258 258 258 258 259 259 259 259 258
264 264 263 262 262 262 263 263 263 263 262 262 260 260 259 258 259 258 257 257 257 257 257 258 257 257 257 257 258 258 258 258 258 258 259 259 259 259
265 265 265 264 264 264 264 264 263 263 263 262 261 260 260 259 259 259 259 258 258 258 258 258 258 258 258 257 258 258 258 258 258 259 260 260 260 259
265 265 266 265 265 265 265 265 265 264 263 262 261 259 259 259 259 258 259 259 259 260 259 259 258 259 259 257 257 257 258 258 259 259 260 260 260 259
266 265 265 265 266 266 266 266 266 265 264 262 260 259 258 259 259 258 258 259 260 259 258 258 258 258 258 257 257 256 257 258 259 258 259 260 259 259
267 266 265 265 265 266 266 266 266 265 264 263 262 261 259 259 258 258 258 258 258 258 257 257 257 257 256 257 257 256 256 257 258 258 258 259 259 259
269 268 267 265 265 266 266 267 267 266 265 264 263 261 260 258 258 258 258 257 257 257 256 255 254 255 256 256 257 257 257 257 258 258 258 259 260 260
271 269 267 266 266 266 266 266 266 266 265 265 264 262 261 259 258 257 257 256 256 256 256 255 254 254 256 256 257 257 257 258 258 258 259 259 260 259
271 270 269 268 267 267 266 265 265 266 266 265 264 263 261 260 258 257 256 255 256 255 255 256 256 255 256 256 256 257 258 258 258 258 258 258 257 257
272 270 270 270 269 268 267 266 266 266 266 265 264 263 261 259 258 258 256 255 255 255 255 257 257 257 257 257 256 257 258 257 256 256 257 257 257 257
272 271 270 270 270 269 268 267 266 266 266 266 264 262 261 260 259 259 257 256 255 255 256 256 257 257 257 257 256 256 256 256 255 255 255 256 256 257
273 273 271 270 270 270 269 268 268 267 267 266 265 262 261 261 260 259 258 257 256 255 255 255 256 256 256 256 256 255 255 254 254 254 254 254 255 255
274 272 272 271 270 270 270 269 269 268 267 266 265 263 261 261 260 259 258 257 255 255 255 255 254 253 254 256 254 253 253 253 252 252 253 254 255 255
275 273 272 272 271 270 269 269 269 267 266 265 264 262 261 260 259 258 256 255 255 254 254 253 253 252 252 253 253 253 253 253 251 251 252 254 255 255
Height
5625 5626 5628 5630 5632 5634 5636 5638 5641 5644 5648 5650 5652 5653 5655 5658 5660 5662 5665 5667 5669 5672 5675 5677 5679 5682 5684 5686 5689 5691 5693 5695 5697 5700 5702 5704 5706 5709
5611 5612 5614 5615 5617 5618 5620 5622 5624 5627 5631 5635 5635 5637 5638 5641 5643 5645 5647 5650 5652 5655 5657 5660 5662 5665 5667 5670 5672 5674 5677 5679 5682 5684 5687 5689 5692 5694
5596 5597 5599 5600 5601 5603 5605 5606 5608 5610 5613 5618 5619 5620 5621 5624 5626 5627 5630 5632 5635 5637 5639 5642 5644 5647 5650 5652 5655 5657 5660 5662 5665 5668 5670 5673 5676 5679
5581 5582 5584 5585 5586 5587 5589 5590 5592 5593 5596 5599 5602 5603 5604 5606 5608 5610 5612 5614 5617 5619 5621 5623 5626 5629 5631 5634 5636 5639 5642 5644 5647 5650 5653 5657 5659 5661
5566 5567 5568 5569 5571 5571 5573 5574 5575 5576 5578 5581 5584 5586 5587 5588 5590 5592 5594 5596 5598 5601 5603 5605 5608 5611 5614 5616 5619 5621 5624 5627 5630 5632 5635 5637 5641 5644
5551 5552 5553 5554 5555 5555 5556 5557 5558 5559 5561 5563 5566 5568 5569 5570 5571 5574 5577 5579 5581 5583 5585 5588 5590 5593 5596 5599 5602 5604 5606 5608 5611 5614 5616 5619 5622 5625
5536 5536 5537 5538 5538 5539 5540 5541 5541 5542 5544 5545 5547 5549 5552 5552 5554 5556 5559 5561 5563 5565 5568 5571 5573 5576 5578 5581 5584 5586 5589 5591 5593 5596 5599 5601 5604 5607
5520 5521 5521 5522 5522 5523 5524 5524 5525 5525 5527 5527 5530 5532 5534 5535 5536 5538 5540 5543 5547 5550 5550 5553 5555 5558 5561 5564 5566 5569 5571 5573 5576 5578 5581 5583 5586 5589
5505 5505 5505 5505 5505 5506 5507 5507 5507 5508 5509 5510 5512 5514 5516 5518 5519 5521 5523 5525 5528 5530 5531 5535 5537 5540 5543 5546 5548 5551 5553 5555 5558 5560 5563 5565 5568 5571
5489 5489 5489 5489 5489 5489 5490 5490 5491 5491 5492 5493 5495 5498 5498 5499 5500 5502 5504 5507 5510 5512 5513 5516 5520 5522 5525 5528 5531 5533 5535 5537 5540 5542 5545 5547 5550 5553
5472 5473 5473 5473 5474 5473 5473 5474 5474 5474 5474 5475 5477 5479 5481 5482 5482 5484 5486 5488 5492 5495 5496 5498 5502 5504 5508 5511 5513 5515 5517 5519 5522 5524 5527 5530 5532 5535
5457 5457 5457 5457 5456 5455 5455 5455 5456 5457 5457 5458 5459 5461 5462 5464 5465 5466 5468 5470 5474 5477 5479 5481 5484 5485 5490 5494 5496 5497 5499 5502 5504 5507 5509 5512 5514 5516
5440 5441 5441 5440 5439 5438 5438 5438 5439 5440 5440 5441 5442 5444 5445 5447 5448 5450 5451 5453 5456 5459 5461 5463 5465 5467 5470 5475 5479 5480 5482 5484 5487 5490 5492 5494 5496 5498
5425 5425 5425 5424 5423 5423 5422 5422 5423 5422 5423 5424 5426 5427 5429 5430 5432 5434 5435 5437 5439 5442 5443 5444 5447 5449 5452 5456 5461 5464 5466 5467 5470 5472 5475 5477 5479 5481
5409 5409 5409 5408 5408 5407 5407 5407 5406 5406 5407 5408 5410 5412 5413 5414 5416 5417 5419 5420 5422 5424 5426 5428 5430 5433 5435 5439 5443 5446 5448 5451 5453 5455 5457 5459 5462 5464
5393 5393 5393 5393 5392 5393 5392 5392 5391 5391 5391 5393 5394 5396 5397 5398 5399 5401 5402 5404 5406 5408 5410 5412 5414 5417 5419 5422 5425 5428 5431 5433 5436 5438 5440 5443 5445 5447
5378 5378 5378 5377 5377 5377 5377 5376 5376 5376 5376 5377 5378 5379 5380 5381 5383 5385 5386 5388 5390 5392 5395 5397 5399 5401 5404 5406 5409 5411 5414 5417 5419 5421 5423 5426 5429 5430
5364 5363 5363 5362 5362 5361 5361 5361 5361 5361 5361 5362 5362 5363 5364 5366 5368 5369 5371 5373 5375 5377 5379 5382 5384 5387 5389 5392 5394 5396 5398 5400 5403 5405 5407 5410 5413 5416
5350 5349 5348 5348 5347 5346 5346 5346 5347 5347 5347 5347 5347 5348 5349 5351 5353 5354 5356 5358 5361 5363 5365 5367 5369 5371 5374 5377 5380 5381 5383 5385 5387 5390 5392 5395 5399 5402
5337 5336 5335 5334 5334 5333 5332 5332 5332 5333 5333 5333 5333 5334 5335 5337 5338 5340 5342 5345 5347 5349 5351 5353 5355 5357 5360 5363 5365 5368 5369 5371 5373 5376 5379 5382 5385 5387
5325 5324 5322 5322 5321 5320 5320 5319 5319 5319 5319 5319 5320 5321 5322 5324 5325 5327 5329 5331 5332 5334 5336 5339 5342 5343 5345 5348 5352 5355 5356 5357 5360 5363 5366 5368 5371 5374
5312 5311 5310 5309 5309 5308 5308 5307 5307 5307 5307 5307 5308 5309 5310 5311 5313 5314 5316 5317 5319 5321 5323 5326 5328 5331 5333 5336 5339 5342 5344 5346 5348 5350 5353 5356 5359 5363
5300 5299 5298 5297 5297 5296 5296 5296 5296 5296 5296 5296 5296 5297 5298 5299 5301 5302 5304 5305 5307 5309 5312 5314 5316 5319 5321 5324 5327 5330 5333 5335 5337 5339 5342 5345 5348 5351